Battle Mountain, Nevada, United States (89820)
Lat: 40.64N, Lon: 116.93W
Wx Zone: NVZ036
Local Info
Past Weather Observations for Thursday, April 28, 2016

NOTE: This archive is for the closest National Weather Service station to Battle Mountain. Information may differ from the station used for current weather conditions.

Click here for Long-term Archive

Time Weather Temperature Dewpoint Humidity Pressure Winds Precip Visibility
23:56
Clear
36°F / 2°C 32°F / 0°C 87% 29.98 in
(1015 mb)
S 6.9 mph
(S 11 kph)
- 10SM
22:56
Partly Cloudy
37°F / 3°C 32°F / 0°C 81% 29.98 in
(1015 mb)
SSW 10.4 mph
(SSW 17 kph)
- 10SM
21:56
Clear
43°F / 6°C 34°F / 1°C 71% 29.95 in
(1014 mb)
Calm - 10SM
20:56
Overcast
45°F / 7°C 36°F / 2°C 71% 29.95 in
(1014 mb)
Calm - 10SM
19:56
Overcast
45°F / 7°C 36°F / 2°C 71% 29.95 in
(1014 mb)
S 4.6 mph
(S 7 kph)
- 10SM
18:56
Clear
46°F / 8°C 34°F / 1°C 62% 29.92 in
(1013 mb)
NW 5.8 mph
(NW 9 kph)
- 10SM
17:56
Clear
55°F / 13°C 34°F / 1°C 44% 29.92 in
(1013 mb)
NW 13.8 mph
(NW 22 kph)
- 10SM
16:56
Partly Cloudy
55°F / 13°C 36°F / 2°C 47% 29.92 in
(1013 mb)
NNW 13.8 mph
(NNW 22 kph)
- 10SM
15:56
Overcast
57°F / 14°C 34°F / 1°C 41% 29.92 in
(1013 mb)
N 15 mph
(N 24 kph)
- 10SM
14:56
Overcast
57°F / 14°C 34°F / 1°C 41% 29.89 in
(1012 mb)
NNW 15 mph
(NNW 24 kph)
- 10SM
13:56
Mostly Cloudy
59°F / 15°C 36°F / 2°C 42% 29.89 in
(1012 mb)
NNW 15 mph
(NNW 24 kph)
- 10SM
12:56
Overcast
57°F / 14°C 37°F / 3°C 48% 29.89 in
(1012 mb)
N 8.1 mph
(N 13 kph)
- 10SM
11:56
Overcast
54°F / 12°C 36°F / 2°C 51% 29.89 in
(1012 mb)
NNW 13.8 mph
(NNW 22 kph)
0.00 in
(0.00 mm)
10SM
10:56
Overcast
52°F / 11°C 37°F / 3°C 58% 29.89 in
(1012 mb)
NNW 18.4 mph
(NNW 30 kph)
- 10SM
09:56
Overcast
52°F / 11°C 37°F / 3°C 58% 29.89 in
(1012 mb)
NNW 17.3 mph
(NNW 28 kph)
- 10SM
08:56
Overcast
46°F / 8°C 37°F / 3°C 71% 29.89 in
(1012 mb)
NNW 17.3 mph
(NNW 28 kph)
0.00 in
(0.00 mm)
10SM
07:56
Overcast
45°F / 7°C 37°F / 3°C 76% 29.89 in
(1012 mb)
NNW 18.4 mph
(NNW 30 kph)
0.00 in
(0.00 mm)
10SM
06:56
Overcast
45°F / 7°C 36°F / 2°C 71% 29.86 in
(1011 mb)
NNW 17.3 mph
(NNW 28 kph)
- 10SM
05:56
Overcast
43°F / 6°C 37°F / 3°C 81% 29.83 in
(1010 mb)
NNW 11.5 mph
(NNW 19 kph)
- 10SM
04:56
Overcast
41°F / 5°C 37°F / 3°C 87% 29.83 in
(1010 mb)
N 9.2 mph
(N 15 kph)
- 10SM
03:56
Partly Cloudy
39°F / 4°C 36°F / 2°C 87% 29.83 in
(1010 mb)
NW 3.5 mph
(NW 6 kph)
- 10SM
02:56
Overcast
41°F / 5°C 36°F / 2°C 81% 29.83 in
(1010 mb)
WNW 9.2 mph
(WNW 15 kph)
- 10SM
01:56
Overcast
41°F / 5°C 36°F / 2°C 81% 29.83 in
(1010 mb)
W 9.2 mph
(W 15 kph)
- 10SM
00:56
Overcast
41°F / 5°C 36°F / 2°C 81% 29.83 in
(1010 mb)
Calm - 10SM
Time Weather Temperature Dewpoint Humidity Pressure Winds Precip Visibility


Weather for websites

WeatherForYou.com, LLC is not responsible for any damages or problems caused by this service. Current weather conditions are obtained from the closest station including government and personal stations which may have varying degrees of accuracy. Weather forecasts are derived from the NOAA NDFD. Like all things, this site belongs to Jesus Christ... He just trusts us to maintain it. If you have any questions or comments email webmaster@weatherforyou.com

Copyright © 2016, WeatherForYou.com LLC. All rights reserved.